EW7144 Weather Reports


time (UTC)temp
C
wind
direction
speed
KPH
gust
KPH
rain 1hr
cm
rain 24hr
cm
rain mn
cm
humidity
%
barometer
mb
20260905211911 13 342 19.3 33.8 0.08 0.28 0.28 90 1010.2
20260905211407 13 356 12.9 27.4 0.08 0.28 0.28 90 1010.3
20260905210906 13 348 16.1 32.2 0.10 0.28 0.28 90 1010.3
20260905210406 13 349 16.1 32.2 0.13 0.28 0.28 90 1010.4
20260905205907 13 349 19.3 29.0 0.13 0.28 0.28 90 1010.5
20260905205407 13 351 19.3 29.0 0.13 0.28 0.28 90 1010.7
20260905204907 13 346 16.1 32.2 0.13 0.25 0.25 90 1010.7
20260905204406 13 346 16.1 27.4 0.10 0.23 0.23 90 1010.8
20260905203907 13 354 19.3 32.2 0.10 0.23 0.23 90 1010.9
20260905203406 13 348 19.3 33.8 0.10 0.23 0.23 90 1010.9
20260905202907 13 345 16.1 25.7 0.13 0.23 0.23 90 1011.0
20260905202406 13 341 14.5 29.0 0.15 0.23 0.23 90 1011.0
20260905201907 13 348 19.3 29.0 0.13 0.20 0.20 90 1011.0
20260905201407 13 340 14.5 33.8 0.13 0.20 0.20 90 1010.9
20260905200907 13 320 16.1 29.0 0.10 0.18 0.18 90 1010.9
20260905200407 13 343 19.3 33.8 0.15 0.15 0.15 90 1011.0
20260905195907 13 349 17.7 29.0 0.15 0.15 0.15 90 1011.0
20260905195406 13 332 16.1 32.2 0.15 0.15 0.15 90 1011.0
20260905194907 13 343 14.5 24.1 0.15 0.15 0.15 90 1011.1
20260905194407 13 347 14.5 27.4 0.15 0.15 0.15 90 1011.0
20260905193907 13 335 11.3 29.0 0.13 0.13 0.13 90 1011.0
20260905193406 13 348 16.1 32.2 0.13 0.13 0.13 90 1011.1
20260905190907 13 343 17.7 29.0 0.08 0.08 0.08 90 1011.0
20260905190406 13 340 14.5 25.7 0.00 0.00 0.00 90 1011.0
20260905185906 13 346 12.9 27.4 0.00 0.00 0.00 90 1011.1
20260905185407 13 351 14.5 32.2 0.00 0.00 0.00 90 1011.0
20260905184406 13 348 12.9 24.1 0.00 0.00 0.00 90 1011.2
20260905183406 13 352 11.3 24.1 0.00 0.00 0.00 89 1011.2
20260905182906 13 335 9.7 19.3 0.00 0.00 0.00 89 1011.2
20260905182406 13 345 11.3 20.9 0.00 0.00 0.00 89 1011.2
20260905180906 13 345 8.0 19.3 0.00 0.00 0.00 89 1011.1
20260905180407 13 342 8.0 19.3 0.00 0.00 0.00 89 1011.0
20260905175907 13 340 6.4 25.7 0.00 0.00 0.00 89 1011.0
20260905175406 13 350 14.5 22.5 0.00 0.00 0.00 89 1011.2
20260905174406 13 340 11.3 25.7 0.00 0.00 0.00 89 1011.2
20260905173907 13 351 12.9 22.5 0.00 0.00 0.00 89 1011.2
20260905173407 13 348 14.5 20.9 0.00 0.00 0.00 89 1011.1
20260905172906 13 351 12.9 24.1 0.00 0.00 0.00 89 1011.0
20260905172406 13 340 14.5 22.5 0.00 0.00 0.00 89 1011.0
20260905171907 13 338 16.1 32.2 0.00 0.00 0.00 89 1011.0
20260905170906 13 345 14.5 29.0 0.00 0.00 0.00 89 1011.1
20260905170407 13 347 12.9 22.5 0.00 0.00 0.00 89 1011.1
20260905165906 13 339 9.7 25.7 0.00 0.00 0.00 89 1011.2
20260905165406 13 350 14.5 32.2 0.00 0.00 0.00 89 1011.2
20260905164906 13 342 14.5 24.1 0.00 0.00 0.00 89 1011.1
20260905163906 13 329 11.3 27.4 0.00 0.00 0.00 89 1011.0
20260905163406 13 345 16.1 32.2 0.00 0.00 0.00 89 1010.8
20260905162906 13 335 8.0 25.7 0.00 0.00 0.00 89 1010.7
20260905162406 12 347 8.0 22.5 0.00 0.00 0.00 89 1010.7
20260905161906 12 326 8.0 20.9 0.00 0.00 0.00 89 1010.6
20260905160907 13 330 8.0 27.4 0.00 0.00 0.00 89 1010.5
20260905160406 13 344 16.1 32.2 0.00 0.00 0.00 89 1010.4
20260905155906 13 341 19.3 32.2 0.00 0.00 0.00 89 1010.5
20260905154907 13 351 12.9 22.5 0.00 0.00 0.00 89 1010.6
20260905154406 13 343 9.7 20.9 0.00 0.00 0.00 89 1010.6
20260905153907 13 342 8.0 22.5 0.00 0.00 0.00 89 1010.7
20260905153406 13 347 11.3 22.5 0.00 0.00 0.00 89 1010.7
20260905152910 13 338 9.7 25.7 0.00 0.00 0.00 89 1010.6
20260905152407 13 285 11.3 27.4 0.00 0.00 0.00 89 1010.6
20260905151907 13 319 9.7 24.1 0.00 0.00 0.00 89 1010.6
20260905150906 13 331 6.4 22.5 0.00 0.00 0.00 89 1010.6
20260905150407 13 301 9.7 22.5 0.00 0.00 0.00 89 1010.6
20260905145907 13 317 6.4 24.1 0.00 0.00 0.00 89 1010.6
20260905145406 13 335 8.0 25.7 0.00 0.00 0.00 88 1010.6
20260905144906 13 242 8.0 22.5 0.00 0.00 0.00 88 1010.6
20260905144407 13 317 9.7 20.9 0.00 0.00 0.00 88 1010.5
20260905143907 13 318 9.7 20.9 0.00 0.00 0.00 88 1010.6
20260905143407 13 294 9.7 24.1 0.00 0.00 0.00 88 1010.8
20260905142907 13 281 11.3 22.5 0.00 0.00 0.00 88 1010.8
20260905142407 13 307 8.0 19.3 0.00 0.00 0.00 88 1010.9
20260905141906 13 321 9.7 24.1 0.00 0.00 0.00 88 1011.0
20260905141407 13 299 9.7 24.1 0.00 0.00 0.00 88 1011.0
20260905140907 13 318 8.0 24.1 0.00 0.00 0.00 88 1011.0
20260905140407 13 325 6.4 24.1 0.00 0.00 0.00 88 1011.0
20260905135906 13 307 9.7 25.7 0.00 0.00 0.00 88 1010.9
20260905135406 13 343 11.3 35.4 0.00 0.00 0.00 88 1011.1
20260905134906 13 330 11.3 25.7 0.00 0.00 0.00 88 1011.1
20260905134406 13 320 8.0 20.9 0.00 0.00 0.00 88 1011.3
20260905133906 13 335 16.1 33.8 0.00 0.00 0.00 88 1011.4
20260905132906 13 320 12.9 35.4 0.00 0.00 0.00 87 1011.7
20260905132407 13 333 16.1 29.0 0.00 0.00 0.00 87 1011.8
20260905131906 13 338 12.9 32.2 0.00 0.00 0.00 87 1011.8
20260905130907 13 346 16.1 29.0 0.00 0.00 0.00 87 1011.9
20260905130406 13 336 17.7 32.2 0.00 0.00 0.00 87 1012.0
20260905125907 13 343 14.5 41.8 0.00 0.00 0.00 87 1011.9
20260905125406 13 344 17.7 37.0 0.00 0.00 0.00 87 1011.9
20260905124906 13 350 22.5 40.2 0.00 0.00 0.00 87 1011.9
20260905124406 13 324 14.5 32.2 0.00 0.00 0.00 87 1011.9
20260905123906 13 305 11.3 37.0 0.00 0.00 0.00 87 1012.0
20260905123406 13 334 11.3 25.7 0.00 0.00 0.00 87 1012.0
20260905122906 13 287 12.9 37.0 0.00 0.00 0.00 87 1012.0
20260905122406 13 327 11.3 32.2 0.00 0.00 0.00 87 1011.9
20260905120907 13 287 14.5 37.0 0.00 0.00 0.00 87 1012.0
20260905120406 13 337 16.1 37.0 0.00 0.00 0.00 87 1012.1
20260905115908 13 303 19.3 35.4 0.00 0.00 0.00 87 1012.2
20260905115406 13 334 20.9 40.2 0.00 0.00 0.00 87 1012.1
20260905114906 13 324 16.1 40.2 0.00 0.00 0.00 87 1012.1
20260905113907 13 335 11.3 32.2 0.00 0.00 0.00 86 1012.1
20260905113406 13 247 17.7 41.8 0.00 0.00 0.00 86 1012.1
20260905112906 13 332 17.7 33.8 0.00 0.00 0.00 86 1012.3
20260905112406 13 343 14.5 32.2 0.00 0.00 0.00 86 1012.4
20260905111907 13 290 19.3 37.0 0.00 0.00 0.00 86 1012.4
20260905111406 13 322 19.3 38.6 0.00 0.00 0.00 87 1012.4
20260905110906 13 309 16.1 35.4 0.00 0.00 0.00 87 1012.4
20260905110406 13 340 12.9 41.8 0.00 0.00 0.00 87 1012.3
20260905105906 13 337 19.3 40.2 0.00 0.00 0.00 87 1012.3
20260905105406 13 341 19.3 32.2 0.00 0.00 0.00 87 1012.4
20260905104910 13 329 19.3 33.8 0.00 0.00 0.00 87 1012.2
20260905104406 13 344 14.5 37.0 0.00 0.00 0.00 87 1012.2
20260905103406 12 336 14.5 40.2 0.00 0.00 0.00 87 1012.2
20260905102907 12 312 12.9 32.2 0.00 0.00 0.00 87 1012.4
20260905102407 12 341 16.1 38.6 0.00 0.00 0.00 87 1012.5
20260905101907 12 333 16.1 37.0 0.00 0.00 0.00 87 1012.4
20260905101406 12 321 14.5 29.0 0.00 0.00 0.00 87 1012.4
20260905100906 12 308 12.9 40.2 0.00 0.00 0.00 87 1012.4
20260905100406 12 334 16.1 32.2 0.00 0.00 0.00 87 1012.4
20260905095906 12 322 8.0 22.5 0.00 0.00 0.00 86 1012.4
20260905094906 13 228 9.7 24.1 0.00 0.00 0.00 85 1012.4
20260905093906 13 317 11.3 27.4 0.00 0.00 0.00 85 1012.2
20260905093406 12 243 14.5 25.7 0.00 0.00 0.00 85 1012.2
20260905092906 12 283 14.5 32.2 0.00 0.00 0.00 85 1012.2
20260905092406 13 264 14.5 27.4 0.00 0.00 0.00 85 1012.4
20260905091910 12 279 11.3 32.2 0.00 0.00 0.00 85 1012.4
20260905091407 12 311 14.5 37.0 0.00 0.00 0.00 85 1012.5
20260905090906 13 242 12.9 25.7 0.00 0.00 0.00 85 1012.5
20260905090406 13 333 11.3 35.4 0.00 0.00 0.00 85 1012.6
20260905085908 13 297 9.7 29.0 0.00 0.00 0.00 85 1012.5
20260905085407 13 290 8.0 27.4 0.00 0.00 0.00 85 1012.4
20260905084906 13 344 9.7 27.4 0.00 0.00 0.00 85 1012.3
20260905084410 12 237 12.9 37.0 0.00 0.00 0.00 85 1012.1
20260905083408 12 279 14.5 32.2 0.00 0.00 0.00 85 1011.8
20260905082906 12 277 16.1 37.0 0.00 0.00 0.00 84 1011.9
20260905082407 12 310 17.7 41.8 0.00 0.00 0.00 84 1012.0
20260905081908 12 320 17.7 37.0 0.00 0.00 0.00 84 1012.0
20260905081407 13 312 16.1 40.2 0.00 0.00 0.00 84 1011.9
20260905080907 13 318 16.1 41.8 0.00 0.00 0.00 83 1012.0
20260905080406 12 322 19.3 33.8 0.00 0.00 0.00 83 1012.0
20260905075906 12 309 14.5 35.4 0.00 0.00 0.00 83 1012.0
20260905075407 12 323 17.7 40.2 0.00 0.00 0.00 84 1012.0
20260905074906 12 325 16.1 35.4 0.00 0.00 0.00 84 1012.0
20260905074406 13 334 16.1 33.8 0.00 0.00 0.00 85 1012.1
20260905073906 12 327 19.3 38.6 0.00 0.00 0.00 85 1012.0
20260905073406 12 349 11.3 33.8 0.00 0.00 0.00 85 1012.0
20260905072906 12 335 14.5 32.2 0.00 0.00 0.00 85 1011.9
20260905072406 12 339 11.3 35.4 0.00 0.00 0.00 85 1011.9
20260905071907 12 331 14.5 33.8 0.00 0.00 0.00 85 1011.9
20260905071406 12 311 14.5 33.8 0.00 0.00 0.00 86 1011.9
20260905070906 12 252 12.9 32.2 0.00 0.00 0.00 86 1011.9
20260905070406 12 228 14.5 35.4 0.00 0.00 0.00 86 1011.8
20260905065907 12 231 14.5 38.6 0.00 0.00 0.00 86 1011.8
20260905065407 12 319 9.7 41.8 0.00 0.00 0.00 86 1011.8
20260905064906 12 332 9.7 32.2 0.00 0.00 0.00 86 1011.8
20260905064406 12 320 9.7 33.8 0.00 0.00 0.00 86 1011.8
20260905063906 12 344 17.7 41.8 0.00 0.00 0.00 86 1011.8
20260905062906 12 306 12.9 32.2 0.00 0.00 0.00 86 1011.7
20260905062407 12 344 11.3 38.6 0.00 0.00 0.00 86 1011.6
20260905061906 12 299 14.5 32.2 0.00 0.00 0.00 86 1011.4
20260905061406 12 228 16.1 38.6 0.00 0.00 0.00 86 1011.3
20260905060907 12 320 17.7 37.0 0.00 0.00 0.00 85 1011.4
20260905060406 12 343 19.3 45.1 0.00 0.00 0.00 85 1011.3
20260905055906 12 0 20.9 40.2 0.00 0.00 0.00 84 1011.3
20260905055406 13 316 22.5 40.2 0.00 0.00 0.00 84 1011.2
20260905054407 13 343 24.1 48.3 0.00 0.00 0.00 83 1011.3
20260905053906 13 343 17.7 41.8 0.00 0.00 0.00 82 1011.2
20260905053406 13 254 17.7 46.7 0.00 0.00 0.00 81 1011.1
20260905052906 13 330 20.9 46.7 0.00 0.00 0.00 80 1011.2
20260905052406 13 345 22.5 53.1 0.00 0.00 0.00 80 1011.3
20260905051407 13 340 20.9 41.8 0.00 0.00 0.00 81 1011.4
20260905050907 13 337 22.5 41.8 0.00 0.00 0.00 81 1011.7
20260905050406 13 340 22.5 40.2 0.00 0.00 0.00 82 1011.6
20260905045906 13 348 17.7 41.8 0.00 0.00 0.00 83 1011.7
20260905045407 13 326 22.5 35.4 0.00 0.00 0.00 82 1011.9
20260905044906 13 334 19.3 41.8 0.00 0.00 0.00 82 1012.0
20260905043406 13 323 19.3 41.8 0.00 0.00 0.00 82 1012.1
20260905042906 13 347 20.9 32.2 0.00 0.00 0.00 82 1012.1
20260905042407 13 346 20.9 40.2 0.00 0.00 0.00 82 1012.1
20260905041907 13 335 14.5 35.4 0.00 0.00 0.00 82 1012.1
20260905041407 13 351 20.9 45.1 0.00 0.00 0.00 82 1012.1
20260905035906 13 340 19.3 48.3 0.00 0.00 0.00 81 1012.3
20260905035407 13 334 19.3 41.8 0.00 0.00 0.00 82 1012.3
20260905034907 13 344 19.3 37.0 0.00 0.00 0.00 80 1012.4
20260905034406 13 348 25.7 38.6 0.00 0.00 0.00 79 1012.4
20260905033406 14 346 22.5 56.3 0.00 0.00 0.00 80 1012.7
20260905032906 14 329 14.5 38.6 0.00 0.00 0.00 80 1012.9
20260905032406 14 342 14.5 35.4 0.00 0.00 0.00 80 1012.9
20260905031907 13 336 11.3 32.2 0.00 0.00 0.00 80 1012.9
20260905031406 13 352 14.5 29.0 0.00 0.00 0.00 80 1012.9
20260905030906 14 337 19.3 35.4 0.00 0.00 0.00 79 1012.9
20260905030406 14 323 20.9 35.4 0.00 0.00 0.00 78 1012.9
20260905025906 14 325 14.5 35.4 0.00 0.00 0.00 79 1012.9
20260905025406 14 325 19.3 32.2 0.00 0.00 0.00 78 1013.0
20260905024907 14 308 16.1 33.8 0.00 0.00 0.00 78 1012.9
20260905023907 14 326 19.3 41.8 0.00 0.00 0.00 79 1013.2
20260905023406 14 311 17.7 35.4 0.00 0.00 0.00 79 1013.2
20260905022906 14 325 16.1 37.0 0.00 0.00 0.00 80 1013.3
20260905022406 13 332 14.5 32.2 0.00 0.00 0.00 81 1013.3
20260905021906 13 303 11.3 35.4 0.00 0.00 0.00 82 1013.3
20260905021406 13 319 17.7 38.6 0.00 0.00 0.00 81 1013.3
20260905020906 13 313 17.7 32.2 0.00 0.00 0.00 82 1013.3
20260905020406 13 334 14.5 32.2 0.00 0.00 0.00 83 1013.4
20260905015906 12 338 11.3 29.0 0.00 0.00 0.00 83 1013.4
20260905015406 13 344 12.9 37.0 0.00 0.00 0.00 84 1013.5
20260905014906 13 311 11.3 29.0 0.00 0.00 0.00 85 1013.6
20260905014406 12 324 14.5 33.8 0.00 0.00 0.00 85 1013.8
20260905013406 12 297 12.9 38.6 0.00 0.00 0.00 83 1014.0
20260905012906 12 341 16.1 41.8 0.00 0.00 0.00 83 1014.2
20260905011406 12 329 9.7 41.8 0.00 0.00 0.00 84 1014.2
20260905010907 12 292 16.1 32.2 0.00 0.00 0.00 86 1014.3
20260905010407 12 319 8.0 25.7 0.00 0.00 0.00 86 1014.4
20260905005906 12 314 3.2 16.1 0.00 0.00 0.00 87 1014.5
20260905005406 12 301 4.8 19.3 0.00 0.00 0.00 87 1014.6
20260905004906 12 322 9.7 25.7 0.00 0.00 0.00 87 1014.7
20260905004407 12 267 9.7 25.7 0.00 0.00 0.00 87 1014.8
20260905003907 12 314 8.0 22.5 0.00 0.00 0.00 87 1014.9
20260905003407 12 256 9.7 24.1 0.00 0.00 0.00 87 1015.0
20260905002907 12 251 9.7 25.7 0.00 0.00 0.00 87 1015.1
20260905002406 12 310 8.0 27.4 0.00 0.00 0.00 87 1015.4
20260905001906 12 242 12.9 32.2 0.00 0.00 0.00 87 1015.4
20260905001406 12 325 11.3 33.8 0.00 0.00 0.00 86 1015.5
20260905000907 12 346 19.3 35.4 0.00 0.00 0.00 85 1015.4
20260905000407 12 296 8.0 19.3 0.00 0.00 0.00 85 1015.3
20260904235407 12 346 12.9 25.7 0.00 0.00 0.00 84 1015.5
20260904234906 12 345 12.9 24.1 0.00 0.00 0.00 84 1015.5
20260904234406 12 349 14.5 25.7 0.00 0.00 0.00 85 1015.4
20260904233906 12 343 9.7 22.5 0.00 0.00 0.00 86 1015.4
20260904233406 12 343 9.7 24.1 0.00 0.00 0.00 86 1015.5
20260904232906 12 341 11.3 22.5 0.00 0.00 0.00 87 1015.6
20260904232406 12 324 9.7 20.9 0.00 0.00 0.00 87 1015.6
20260904231906 11 303 11.3 24.1 0.00 0.00 0.00 87 1015.8
20260904231406 11 347 9.7 20.9 0.00 0.00 0.00 87 1015.9
20260904230906 11 315 6.4 25.7 0.00 0.00 0.00 87 1015.8
20260904230406 11 341 4.8 19.3 0.00 0.00 0.00 87 1015.9
20260904225906 11 321 8.0 20.9 0.00 0.00 0.00 87 1015.9
20260904225406 11 269 8.0 24.1 0.00 0.00 0.00 87 1015.9
20260904224906 11 211 8.0 20.9 0.00 0.00 0.00 86 1016.0
20260904224407 11 237 9.7 24.1 0.00 0.00 0.00 86 1016.1
20260904223907 11 245 4.8 14.5 0.00 0.00 0.00 85 1016.1
20260904222906 12 234 8.0 22.5 0.00 0.00 0.00 83 1016.0
20260904221906 13 346 12.9 25.7 0.00 0.00 0.00 78 1015.8
20260904221407 13 346 9.7 27.4 0.00 0.00 0.00 78 1015.7
20260904220906 13 315 9.7 22.5 0.00 0.00 0.00 79 1015.6
20260904220406 13 328 9.7 25.7 0.00 0.00 0.00 80 1015.7
20260904215906 13 353 12.9 24.1 0.00 0.00 0.00 80 1015.6
20260904215407 13 325 11.3 24.1 0.00 0.00 0.00 79 1015.7
20260904214406 13 343 12.9 22.5 0.00 0.00 0.00 79 1015.7
20260904213906 13 330 8.0 19.3 0.00 0.00 0.00 80 1015.6
20260904213406 12 321 8.0 24.1 0.00 0.00 0.00 80 1015.7
20260904212406 12 315 4.8 16.1 0.00 0.00 0.00 83 1015.7